Location: Mohawk View
(42.7837°N, 73.7885°W)
Time: 07:17:22
(UTC+00:00)

ADEOS Rocket - Pass Details

Date: 17 June 2021
Orbit: 858 x 1307 km, 98.7° (Epoch: 27 July)

Event Time Altitude Azimuth Distance (km) Brightness Sun altitude
Exits shadow 08:35:07 - 210° (SSW) 3,637 5.4 -6.8°
Reaches altitude 10° 08:36:35 10° 216° (SW) 3,222 5.1 -6.6°
Maximum altitude 08:42:19 24° 267° (W) 2,252 4.5 -5.8°
Drops below altitude 10° 08:47:45 10° 319° (NW) 3,016 5.6 -5.1°
Sets 08:50:50 0° 334° (NNW) 3,904 6.3 -4.6°
